HAWK55 KPSP-KNKX

Flight info

Callsign HAWK55
Flight time 0h 15m
Altitude VFR
Route OCN TNP PMD
Aircraft F35/M-SDFIRY/LB1

Departure

Time 2026-04-26 17:36
Airport Palm Springs International Airport (KPSP)

Arrival

Time 2026-04-26 17:51
Airport Miramar Marine Corps Air Station - Mitscher Field (KNKX)
Time Latitude Longitude Altitude Speed Heading
2026-04-26 17:36 33.67852 -116.53429 15412 ft 281 kts 211°
2026-04-26 17:36 33.66067 -116.54418 15388 ft 281 kts 211°
2026-04-26 17:36 33.64266 -116.55414 15063 ft 286 kts 211°
2026-04-26 17:36 33.62487 -116.56395 14312 ft 277 kts 211°
2026-04-26 17:37 33.60760 -116.57336 13623 ft 278 kts 211°
2026-04-26 17:37 33.59005 -116.58284 12874 ft 275 kts 211°
2026-04-26 17:37 33.57270 -116.59215 12114 ft 272 kts 211°
2026-04-26 17:38 33.53844 -116.61037 10638 ft 268 kts 211°
2026-04-26 17:38 33.52143 -116.61934 9941 ft 266 kts 211°
2026-04-26 17:38 33.50459 -116.62814 9158 ft 262 kts 211°
2026-04-26 17:38 33.48802 -116.63677 8355 ft 256 kts 211°
2026-04-26 17:39 33.47202 -116.64523 7585 ft 253 kts 210°
2026-04-26 17:39 33.45621 -116.65391 6827 ft 245 kts 210°
2026-04-26 17:39 33.44072 -116.66266 6159 ft 245 kts 211°
2026-04-26 17:39 33.42560 -116.67128 6015 ft 244 kts 211°
2026-04-26 17:40 33.41025 -116.68008 6007 ft 248 kts 211°
2026-04-26 17:40 33.40006 -116.68600 6020 ft 247 kts 211°
2026-04-26 17:40 33.37942 -116.69792 5590 ft 246 kts 211°
2026-04-26 17:40 33.36436 -116.70750 5559 ft 245 kts 214°
2026-04-26 17:41 33.34969 -116.71758 5572 ft 242 kts 215°
2026-04-26 17:41 33.33508 -116.72799 5527 ft 246 kts 216°
2026-04-26 17:41 33.32083 -116.73836 5452 ft 247 kts 212°
2026-04-26 17:41 33.30391 -116.74303 5450 ft 256 kts 187°
2026-04-26 17:42 33.28616 -116.74296 5485 ft 257 kts 183°
2026-04-26 17:42 33.26838 -116.74194 5487 ft 257 kts 182°
2026-04-26 17:42 33.25056 -116.74080 5505 ft 251 kts 187°
2026-04-26 17:42 33.23434 -116.74680 5510 ft 243 kts 213°
2026-04-26 17:43 33.21992 -116.75719 5502 ft 240 kts 218°
2026-04-26 17:43 33.20591 -116.76870 5475 ft 247 kts 219°
2026-04-26 17:43 33.19212 -116.78075 5503 ft 246 kts 220°
2026-04-26 17:43 33.17871 -116.79281 5503 ft 247 kts 220°
2026-04-26 17:44 33.16521 -116.80514 5501 ft 242 kts 220°
2026-04-26 17:44 33.15171 -116.81760 5536 ft 247 kts 221°
2026-04-26 17:44 33.13823 -116.82999 5552 ft 244 kts 220°
2026-04-26 17:44 33.12471 -116.84244 5571 ft 245 kts 221°
2026-04-26 17:45 33.11145 -116.85498 5600 ft 245 kts 223°
2026-04-26 17:45 33.09851 -116.86822 5001 ft 241 kts 225°
2026-04-26 17:45 33.08615 -116.88165 4286 ft 241 kts 225°
2026-04-26 17:45 33.07398 -116.89525 3852 ft 240 kts 225°
2026-04-26 17:46 33.06188 -116.90877 3675 ft 243 kts 226°
2026-04-26 17:46 33.04969 -116.92242 3584 ft 241 kts 226°
2026-04-26 17:46 33.03736 -116.93623 3564 ft 241 kts 226°
2026-04-26 17:46 33.02513 -116.94985 3549 ft 239 kts 226°
2026-04-26 17:47 33.01283 -116.96357 3570 ft 244 kts 226°
2026-04-26 17:47 33.00469 -116.97284 3561 ft 241 kts 226°
2026-04-26 17:47 32.98832 -116.99131 3590 ft 242 kts 226°
2026-04-26 17:47 32.97598 -117.00506 3331 ft 245 kts 226°
2026-04-26 17:48 32.96384 -117.01861 2938 ft 240 kts 226°
2026-04-26 17:48 32.95185 -117.03202 2739 ft 238 kts 226°
2026-04-26 17:48 32.93916 -117.04467 2672 ft 230 kts 219°
2026-04-26 17:48 32.92802 -117.05359 2402 ft 159 kts 217°
2026-04-26 17:49 32.91890 -117.06063 2140 ft 158 kts 218°
2026-04-26 17:49 32.90957 -117.06743 1974 ft 155 kts 216°
2026-04-26 17:49 32.90040 -117.07414 1897 ft 155 kts 218°
2026-04-26 17:49 32.89193 -117.08115 1798 ft 140 kts 223°
2026-04-26 17:50 32.88480 -117.08906 1555 ft 140 kts 234°
2026-04-26 17:50 32.87993 -117.09860 1313 ft 133 kts 249°
2026-04-26 17:50 32.87699 -117.10893 947 ft 127 kts 256°
2026-04-26 17:50 32.87482 -117.11893 679 ft 126 kts 257°
2026-04-26 17:51 32.87274 -117.12863 512 ft 106 kts 256°
2026-04-26 17:51 32.87141 -117.13479 501 ft 60 kts 256°
2026-04-26 17:51 32.87048 -117.13911 503 ft 49 kts 256°
2026-04-26 17:51 32.87056 -117.14233 503 ft 29 kts 291°
2026-04-26 17:52 32.87146 -117.14318 502 ft 17 kts 53°
2026-04-26 17:52 32.87195 -117.14119 503 ft 33 kts 74°
2026-04-26 17:52 32.87265 -117.13810 500 ft 43 kts 75°
2026-04-26 17:52 32.87343 -117.13458 493 ft 44 kts 75°
2026-04-26 17:53 32.87415 -117.13126 496 ft 35 kts 75°
2026-04-26 17:53 32.87495 -117.13065 500 ft 7 kts
2026-04-26 17:53 32.87530 -117.13036 500 ft 0 kts 44°